When you browse on this site, cookies collect data to enhance your experience and personalize the content and advertising you see.
Visit our Privacy Policy to learn more. By continuing to use the site, you agree to this use of cookies and data.
  • In Deutschland
  • Länderverzeichnis
  • Für 7 Tage
  • Wassertemperatur
  • Wetterkarte
  • Widgets
  • user-avatar
    Anmelden

    Stündliche Wetter Goldene Küste

    Heute, 23 August, Freitag

    Zeit Temperatur Niederschläge Wind Luftdruck Luftfeuchtigkeit
    00:00 +13°C° 0.1 mm 6 m/S 760 mmHg 86%
    01:00 +13°C° 0.1 mm 6 m/S 760 mmHg 89%
    02:00 +12°C° 0 mm 5 m/S 761 mmHg 90%
    03:00 +10°C° 0 mm 5 m/S 761 mmHg 91%
    04:00 +10°C° 0 mm 4 m/S 761 mmHg 95%
    05:00 +10°C° 0 mm 4 m/S 761 mmHg 91%
    06:00 +10°C° 0 mm 4 m/S 762 mmHg 87%
    07:00 +10°C° 0 mm 4 m/S 763 mmHg 83%
    08:00 +13°C° 0 mm 4 m/S 763 mmHg 72%
    09:00 +15°C° 0 mm 4 m/S 763 mmHg 61%
    10:00 +19°C° 0 mm 4 m/S 764 mmHg 50%
    11:00 +20°C° 0 mm 4 m/S 763 mmHg 48%
    12:00 +21°C° 0 mm 4 m/S 763 mmHg 46%
    13:00 +21°C° 0 mm 5 m/S 762 mmHg 44%
    14:00 +21°C° 0 mm 5 m/S 762 mmHg 46%
    15:00 +20°C° 0 mm 6 m/S 762 mmHg 49%
    16:00 +20°C° 0 mm 5 m/S 762 mmHg 50%
    17:00 +17°C° 0 mm 5 m/S 763 mmHg 60%
    18:00 +15°C° 0 mm 5 m/S 763 mmHg 69%
    19:00 +14°C° 0 mm 5 m/S 764 mmHg 79%
    20:00 +13°C° 0 mm 4 m/S 764 mmHg 83%
    21:00 +12°C° 0 mm 4 m/S 764 mmHg 86%
    22:00 +11°C° 0 mm 3 m/S 765 mmHg 89%
    23:00 +11°C° 0 mm 3 m/S 764 mmHg 90%

    Morgen, 24 August, Samstag

    Zeit Temperatur Niederschläge Wind Luftdruck Luftfeuchtigkeit
    00:00 +11°C° 0 mm 3 m/S 764 mmHg 91%
    01:00 +10°C° 0 mm 3 m/S 764 mmHg 92%
    02:00 +10°C° 0 mm 3 m/S 764 mmHg 92%
    03:00 +10°C° 0 mm 3 m/S 764 mmHg 92%
    04:00 +10°C° 0 mm 3 m/S 764 mmHg 91%
    05:00 +10°C° 0 mm 2 m/S 764 mmHg 89%
    06:00 +12°C° 0 mm 2 m/S 765 mmHg 87%
    07:00 +12°C° 0 mm 2 m/S 765 mmHg 85%
    08:00 +15°C° 0 mm 2 m/S 765 mmHg 73%
    09:00 +19°C° 0 mm 1 m/S 765 mmHg 60%
    10:00 +22°C° 0 mm 1 m/S 764 mmHg 47%
    11:00 +23°C° 0 mm 1 m/S 764 mmHg 47%
    12:00 +23°C° 0 mm 2 m/S 763 mmHg 46%
    13:00 +22°C° 0 mm 3 m/S 762 mmHg 45%
    14:00 +22°C° 0 mm 3 m/S 762 mmHg 47%
    15:00 +21°C° 0 mm 4 m/S 761 mmHg 50%
    16:00 +20°C° 0 mm 4 m/S 761 mmHg 52%
    17:00 +18°C° 0 mm 4 m/S 761 mmHg 61%
    18:00 +16°C° 0 mm 3 m/S 762 mmHg 71%
    19:00 +12°C° 0 mm 3 m/S 762 mmHg 80%
    20:00 +12°C° 0 mm 3 m/S 762 mmHg 83%
    21:00 +11°C° 0 mm 3 m/S 762 mmHg 85%
    22:00 +11°C° 0 mm 3 m/S 762 mmHg 87%
    23:00 +11°C° 0 mm 3 m/S 762 mmHg 88%

    übermorgen, 25 August, Sonntag

    Zeit Temperatur Niederschläge Wind Luftdruck Luftfeuchtigkeit
    00:00 +11°C° 0 mm 3 m/S 762 mmHg 89%
    01:00 +11°C° 0 mm 3 m/S 761 mmHg 90%
    02:00 +10°C° 0 mm 3 m/S 761 mmHg 90%
    03:00 +10°C° 0 mm 3 m/S 761 mmHg 89%
    04:00 +10°C° 0 mm 3 m/S 761 mmHg 89%
    05:00 +11°C° 0 mm 3 m/S 761 mmHg 87%
    06:00 +11°C° 0 mm 3 m/S 762 mmHg 85%
    07:00 +11°C° 0 mm 3 m/S 762 mmHg 83%
    08:00 +14°C° 0 mm 3 m/S 762 mmHg 71%
    09:00 +19°C° 0 mm 3 m/S 761 mmHg 58%
    10:00 +22°C° 0 mm 3 m/S 761 mmHg 46%
    11:00 +24°C° 0 mm 3 m/S 761 mmHg 43%
    12:00 +25°C° 0 mm 4 m/S 760 mmHg 39%
    13:00 +26°C° 0 mm 4 m/S 759 mmHg 36%
    14:00 +26°C° 0 mm 4 m/S 759 mmHg 39%
    15:00 +25°C° 0 mm 4 m/S 758 mmHg 41%
    16:00 +23°C° 0 mm 4 m/S 758 mmHg 44%
    17:00 +21°C° 0 mm 3 m/S 758 mmHg 54%
    18:00 +19°C° 0 mm 3 m/S 759 mmHg 63%
    19:00 +17°C° 0 mm 3 m/S 759 mmHg 73%
    20:00 +17°C° 0 mm 3 m/S 759 mmHg 73%
    21:00 +17°C° 0 mm 3 m/S 760 mmHg 73%
    22:00 +17°C° 0 mm 3 m/S 760 mmHg 73%
    23:00 +16°C° 0 mm 3 m/S 760 mmHg 76%

    26 August, Montag

    Zeit Temperatur Niederschläge Wind Luftdruck Luftfeuchtigkeit
    00:00 +14°C° 0 mm 3 m/S 760 mmHg 78%
    01:00 +14°C° 0 mm 3 m/S 759 mmHg 80%
    02:00 +13°C° 0 mm 3 m/S 759 mmHg 81%
    03:00 +14°C° 0 mm 2 m/S 759 mmHg 81%
    04:00 +13°C° 0 mm 2 m/S 759 mmHg 82%
    05:00 +14°C° 0 mm 2 m/S 759 mmHg 80%
    06:00 +14°C° 0 mm 2 m/S 760 mmHg 77%
    07:00 +14°C° 0 mm 2 m/S 760 mmHg 75%
    08:00 +18°C° 0 mm 2 m/S 760 mmHg 62%
    09:00 +23°C° 0 mm 1 m/S 760 mmHg 49%
    10:00 +26°C° 0 mm 1 m/S 760 mmHg 37%
    11:00 +26°C° 0 mm 1 m/S 760 mmHg 36%
    12:00 +26°C° 0 mm 2 m/S 759 mmHg 36%
    13:00 +26°C° 0 mm 3 m/S 758 mmHg 35%
    14:00 +25°C° 0 mm 3 m/S 758 mmHg 42%
    15:00 +24°C° 0 mm 3 m/S 758 mmHg 49%
    16:00 +22°C° 0 mm 3 m/S 758 mmHg 56%
    17:00 +20°C° 0 mm 2 m/S 759 mmHg 65%
    18:00 +18°C° 0 mm 2 m/S 759 mmHg 74%
    19:00 +16°C° 0 mm 1 m/S 760 mmHg 83%
    20:00 +16°C° 0 mm 1 m/S 760 mmHg 85%
    21:00 +15°C° 0 mm 1 m/S 761 mmHg 86%
    22:00 +15°C° 0 mm 1 m/S 761 mmHg 88%
    23:00 +14°C° 0 mm 1 m/S 761 mmHg 88%

    27 August, Dienstag

    Zeit Temperatur Niederschläge Wind Luftdruck Luftfeuchtigkeit
    00:00 +14°C° 0 mm 1 m/S 761 mmHg 88%
    01:00 +13°C° 0 mm 1 m/S 761 mmHg 89%
    02:00 +13°C° 0.1 mm 1 m/S 761 mmHg 88%
    03:00 +13°C° 0.1 mm 2 m/S 761 mmHg 87%
    04:00 +13°C° 0.1 mm 2 m/S 760 mmHg 86%
    05:00 +13°C° 0 mm 2 m/S 761 mmHg 84%
    06:00 +14°C° 0 mm 2 m/S 762 mmHg 81%
    07:00 +15°C° 0 mm 2 m/S 762 mmHg 78%
    08:00 +18°C° 0 mm 2 m/S 762 mmHg 66%
    09:00 +21°C° 0 mm 2 m/S 762 mmHg 54%
    10:00 +25°C° 0 mm 2 m/S 762 mmHg 41%
    11:00 +25°C° 0 mm 3 m/S 762 mmHg 42%
    12:00 +25°C° 0 mm 3 m/S 761 mmHg 42%
    13:00 +25°C° 0 mm 4 m/S 760 mmHg 43%
    14:00 +22°C° 0.1 mm 3 m/S 760 mmHg 51%
    15:00 +21°C° 0.1 mm 3 m/S 760 mmHg 60%
    16:00 +19°C° 0.1 mm 3 m/S 760 mmHg 68%
    17:00 +18°C° 0.2 mm 2 m/S 761 mmHg 76%
    18:00 +16°C° 0.2 mm 2 m/S 761 mmHg 83%
    19:00 +15°C° 0.2 mm 1 m/S 762 mmHg 90%
    20:00 +14°C° 0.1 mm 1 m/S 762 mmHg 89%
    21:00 +14°C° 0.1 mm 1 m/S 762 mmHg 89%
    22:00 +14°C° 0.1 mm 1 m/S 762 mmHg 88%
    23:00 +14°C° 0.1 mm 1 m/S 762 mmHg 90%

    28 August, Mittwoch

    Zeit Temperatur Niederschläge Wind Luftdruck Luftfeuchtigkeit
    00:00 +14°C° 0.1 mm 1 m/S 762 mmHg 92%
    01:00 +14°C° 0.1 mm 1 m/S 762 mmHg 94%
    02:00 +13°C° 0.1 mm 1 m/S 762 mmHg 93%
    03:00 +13°C° 0.1 mm 2 m/S 761 mmHg 93%
    04:00 +13°C° 0.1 mm 2 m/S 761 mmHg 92%
    05:00 +13°C° 0.1 mm 2 m/S 762 mmHg 91%
    06:00 +14°C° 0.1 mm 2 m/S 762 mmHg 89%
    07:00 +14°C° 0.1 mm 2 m/S 762 mmHg 88%
    08:00 +17°C° 0 mm 2 m/S 762 mmHg 74%
    09:00 +20°C° 0 mm 2 m/S 762 mmHg 60%
    10:00 +25°C° 0 mm 2 m/S 762 mmHg 46%
    11:00 +24°C° 0 mm 2 m/S 761 mmHg 45%
    12:00 +24°C° 0 mm 3 m/S 761 mmHg 45%
    13:00 +24°C° 0 mm 3 m/S 760 mmHg 44%
    14:00 +24°C° 0 mm 3 m/S 760 mmHg 48%
    15:00 +22°C° 0 mm 3 m/S 759 mmHg 52%
    16:00 +21°C° 0 mm 3 m/S 759 mmHg 57%
    17:00 +19°C° 0 mm 3 m/S 759 mmHg 67%
    18:00 +17°C° 0 mm 2 m/S 760 mmHg 78%
    19:00 +15°C° 0 mm 2 m/S 760 mmHg 88%
    20:00 +15°C° 0.2 mm 1 m/S 761 mmHg 91%
    21:00 +14°C° 0.2 mm 1 m/S 761 mmHg 93%
    22:00 +14°C° 0.2 mm 1 m/S 761 mmHg 95%
    23:00 +14°C° 0.2 mm 1 m/S 761 mmHg 95%
    Mehr zeigen